,,,PA_Meas_PMT16A,,PR_Meas_QMR101_102,,RH_Meas_QMH101,,SR_Meas_QMS101,,TA_Meas_QMH101,,GenWind,,GenWind,
date,time,status,PA,status,PR,status,RH,status,SR,status,TA,status,DirAvg,status,SpdAvg,
2009-10-14, 00:00:04,VALID,1001.08,VALID,0,VALID,88.4349,VALID,0,VALID,24.6965,VALID,121,VALID,0.733203,
2009-10-14, 00:01:04,VALID,1001.09,VALID,0,VALID,88.3968,VALID,0,VALID,24.6751,VALID,112,VALID,0.769922,
2009-10-14, 00:02:04,VALID,1001.09,VALID,0,VALID,88.5646,VALID,0,VALID,24.6946,VALID,111,VALID,0.470703,
2009-10-14, 00:03:04,VALID,1001.08,VALID,0,VALID,88.2976,VALID,0,VALID,24.6751,VALID,114,VALID,0.825,
2009-10-14, 00:04:04,VALID,1001.12,VALID,0,VALID,88.084,VALID,0,VALID,24.6556,VALID,119,VALID,0.689844,
2009-10-14, 00:05:04,VALID,1001.12,VALID,0,VALID,87.5728,VALID,0,VALID,24.6751,VALID,118,VALID,0.769141,
2009-10-14, 00:06:04,VALID,1001.11,VALID,0,VALID,87.3134,VALID,0,VALID,24.6751,VALID,107,VALID,0.734766,
2009-10-14, 00:07:04,VALID,1001.11,VALID,0,VALID,87.2829,VALID,0,VALID,24.6946,VALID,111,VALID,0.575781,
2009-10-14, 00:08:04,VALID,1001.08,VALID,0,VALID,87.2981,VALID,0,VALID,24.6946,VALID,105,VALID,0.346484,
2009-10-14, 00:09:04,VALID,1001.09,VALID,0,VALID,87.0769,VALID,0,VALID,24.6751,VALID,111,VALID,0.375391,
2009-10-14, 00:10:04,VALID,1001.08,VALID,0,VALID,87.2142,VALID,0,VALID,24.6965,VALID,111,VALID,0,
2009-10-14, 00:11:04,VALID,1001.02,VALID,0,VALID,87.1303,VALID,0,VALID,24.6751,VALID,111,VALID,0.0914062,
2009-10-14, 00:12:04,VALID,1001.04,VALID,0,VALID,86.9472,VALID,0,VALID,24.677,VALID,111,VALID,0,
2009-10-14, 00:13:04,VALID,1001.06,VALID,0,VALID,87.0387,VALID,0,VALID,24.6556,VALID,111,VALID,0,
2009-10-14, 00:14:04,VALID,1001.02,VALID,0,VALID,86.9853,VALID,0,VALID,24.6575,VALID,111,VALID,0,
2009-10-14, 00:15:04,VALID,1001,VALID,0,VALID,87.0311,VALID,0,VALID,24.6361,VALID,111,VALID,0.174609,
2009-10-14, 00:16:04,VALID,1000.98,VALID,0,VALID,86.9319,VALID,0,VALID,24.6361,VALID,111,VALID,0.761328,
2009-10-14, 00:17:04,VALID,1000.99,VALID,0,VALID,86.9548,VALID,0,VALID,24.6361,VALID,111,VALID,0.552344,
2009-10-14, 00:18:04,VALID,1000.96,VALID,0,VALID,86.5428,VALID,0,VALID,24.6575,VALID,111,VALID,0.873047,
2009-10-14, 00:19:04,VALID,1000.97,VALID,0,VALID,86.4817,VALID,0,VALID,24.6751,VALID,108,VALID,0.996875,
2009-10-14, 00:20:04,VALID,1000.92,VALID,0,VALID,86.5199,VALID,0,VALID,24.6946,VALID,105,VALID,0.863281,
2009-10-14, 00:21:04,VALID,1000.92,VALID,0,VALID,86.6191,VALID,0,VALID,24.7142,VALID,103,VALID,0.814062,
2009-10-14, 00:22:04,VALID,1000.95,VALID,0,VALID,86.9319,VALID,0,VALID,24.7142,VALID,104,VALID,0.770703,
2009-10-14, 00:23:04,VALID,1000.95,VALID,0,VALID,86.7946,VALID,0,VALID,24.6946,VALID,104,VALID,0.513281,
2009-10-14, 00:24:04,VALID,1000.92,VALID,0,VALID,86.8403,VALID,0,VALID,24.716,VALID,104,VALID,0.369531,
2009-10-14, 00:25:04,VALID,1000.92,VALID,0,VALID,87.0006,VALID,0,VALID,24.6751,VALID,104,VALID,0.316797,
2009-10-14, 00:26:04,VALID,1000.92,VALID,0,VALID,86.97,VALID,0,VALID,24.6965,VALID,99,VALID,0.349219,
2009-10-14, 00:27:04,VALID,1000.92,VALID,0,VALID,86.7869,VALID,0,VALID,24.6556,VALID,97,VALID,0.392578,
2009-10-14, 00:28:04,VALID,1000.94,VALID,0,VALID,86.6649,VALID,0,VALID,24.6556,VALID,97,VALID,0.290234,
2009-10-14, 00:29:04,VALID,1000.9,VALID,0,VALID,86.3292,VALID,0,VALID,24.6575,VALID,85,VALID,0.604297,
2009-10-14, 00:30:04,VALID,1000.9,VALID,0,VALID,86.558,VALID,0,VALID,24.6361,VALID,84,VALID,0.309375,
2009-10-14, 00:31:04,VALID,1000.92,VALID,0,VALID,86.6038,VALID,0,VALID,24.6575,VALID,87,VALID,0.473828,
2009-10-14, 00:32:04,VALID,1000.92,VALID,0,VALID,86.5351,VALID,0.112286,VALID,24.6361,VALID,134,VALID,1.14336,
2009-10-14, 00:33:04,VALID,1000.91,VALID,0,VALID,86.23,VALID,0,VALID,24.6166,VALID,124,VALID,0.95,
2009-10-14, 00:34:04,VALID,1000.9,VALID,0,VALID,86.2376,VALID,0,VALID,24.638,VALID,110,VALID,1.01758,
2009-10-14, 00:35:04,VALID,1000.89,VALID,0,VALID,86.2529,VALID,0,VALID,24.638,VALID,114,VALID,0.878516,
2009-10-14, 00:36:04,VALID,1000.89,VALID,0,VALID,86.3673,VALID,0,VALID,24.6166,VALID,131,VALID,0.705078,
2009-10-14, 00:37:04,VALID,1000.88,VALID,0,VALID,86.2605,VALID,0,VALID,24.5971,VALID,127,VALID,0.913281,
2009-10-14, 00:38:04,VALID,1000.9,VALID,0,VALID,86.4589,VALID,0,VALID,24.5971,VALID,110,VALID,0.447656,
2009-10-14, 00:39:04,VALID,1000.89,VALID,0,VALID,86.5504,VALID,0,VALID,24.6184,VALID,111,VALID,0.465625,
2009-10-14, 00:40:04,VALID,1000.9,VALID,0,VALID,86.4894,VALID,0,VALID,24.5794,VALID,126,VALID,0.353906,
2009-10-14, 00:41:04,VALID,1000.89,VALID,0,VALID,86.2757,VALID,0,VALID,24.5385,VALID,128,VALID,0.525391,
2009-10-14, 00:42:04,VALID,1000.88,VALID,0,VALID,86.1079,VALID,0,VALID,24.5599,VALID,131,VALID,0.531641,
2009-10-14, 00:43:04,VALID,1000.87,VALID,0,VALID,86.3673,VALID,0,VALID,24.558,VALID,131,VALID,0.144922,
2009-10-14, 00:44:04,VALID,1000.85,VALID,0,VALID,86.3597,VALID,0.112286,VALID,24.5794,VALID,131,VALID,0,
2009-10-14, 00:45:04,VALID,1000.81,VALID,0,VALID,86.3292,VALID,0,VALID,24.5385,VALID,131,VALID,0,
2009-10-14, 00:46:04,VALID,1000.8,VALID,0,VALID,86.4054,VALID,0,VALID,24.519,VALID,131,VALID,0.127734,
2009-10-14, 00:47:04,VALID,1000.77,VALID,0,VALID,86.3749,VALID,0,VALID,24.4995,VALID,131,VALID,0.230469,
2009-10-14, 00:48:04,VALID,1000.81,VALID,0,VALID,86.3902,VALID,0,VALID,24.5013,VALID,131,VALID,0.444141,
2009-10-14, 00:49:04,VALID,1000.78,VALID,0,VALID,86.3673,VALID,0,VALID,24.5013,VALID,130,VALID,0.544141,
2009-10-14, 00:50:04,VALID,1000.79,VALID,0,VALID,86.1079,VALID,0,VALID,24.5013,VALID,114,VALID,0.756641,
2009-10-14, 00:51:04,VALID,1000.77,VALID,0,VALID,85.7417,VALID,0,VALID,24.48,VALID,108,VALID,1.01094,
2009-10-14, 00:52:04,VALID,1000.76,VALID,0,VALID,85.8485,VALID,0,VALID,24.5013,VALID,108,VALID,0.819531,
2009-10-14, 00:53:04,VALID,1000.76,VALID,0,VALID,85.7417,VALID,0,VALID,24.4604,VALID,129,VALID,0.760547,
2009-10-14, 00:54:04,VALID,1000.74,VALID,0,VALID,85.7798,VALID,0,VALID,24.4409,VALID,142,VALID,0.641016,
2009-10-14, 00:55:04,VALID,1000.74,VALID,0,VALID,85.7874,VALID,0,VALID,24.4818,VALID,149,VALID,0.544141,
2009-10-14, 00:56:04,VALID,1000.76,VALID,0,VALID,85.818,VALID,0,VALID,24.48,VALID,149,VALID,0.387109,
2009-10-14, 00:57:04,VALID,1000.74,VALID,0,VALID,85.7188,VALID,0,VALID,24.4604,VALID,149,VALID,0.216406,
2009-10-14, 00:58:04,VALID,1000.72,VALID,0,VALID,85.6501,VALID,0,VALID,24.48,VALID,149,VALID,0.174219,
2009-10-14, 00:59:04,VALID,1000.72,VALID,0,VALID,85.7417,VALID,0,VALID,24.5013,VALID,149,VALID,0,
2009-10-14, 01:00:04,VALID,1000.73,VALID,0,VALID,85.7112,VALID,0.112286,VALID,24.4604,VALID,149,VALID,0,
2009-10-14, 01:01:04,VALID,1000.72,VALID,0,VALID,85.7493,VALID,0.112286,VALID,24.48,VALID,149,VALID,0.28125,
2009-10-14, 01:02:04,VALID,1000.72,VALID,0,VALID,85.2992,VALID,0.112286,VALID,24.48,VALID,150,VALID,0.432031,
2009-10-14, 01:03:04,VALID,1000.72,VALID,0,VALID,85.0626,VALID,0,VALID,24.48,VALID,150,VALID,0.275391,
2009-10-14, 01:04:04,VALID,1000.68,VALID,0,VALID,85.0703,VALID,0,VALID,24.48,VALID,150,VALID,0.252734,
2009-10-14, 01:05:04,VALID,1000.68,VALID,0,VALID,84.8109,VALID,0,VALID,24.4995,VALID,150,VALID,0.196875,
2009-10-14, 01:06:04,VALID,1000.68,VALID,0,VALID,85.0245,VALID,0,VALID,24.48,VALID,150,VALID,0.316406,
2009-10-14, 01:07:04,VALID,1000.65,VALID,0,VALID,84.9253,VALID,0,VALID,24.5013,VALID,150,VALID,0.287891,
2009-10-14, 01:08:04,VALID,1000.64,VALID,0,VALID,84.9863,VALID,0.112286,VALID,24.48,VALID,150,VALID,0.274219,
2009-10-14, 01:09:04,VALID,1000.66,VALID,0,VALID,85.261,VALID,0,VALID,24.4604,VALID,150,VALID,0.292188,
2009-10-14, 01:10:04,VALID,1000.62,VALID,0,VALID,85.2152,VALID,0,VALID,24.4409,VALID,150,VALID,0.090625,
2009-10-14, 01:11:04,VALID,1000.63,VALID,0,VALID,85.0169,VALID,0,VALID,24.4214,VALID,150,VALID,0,
2009-10-14, 01:12:04,VALID,1000.59,VALID,0,VALID,85.0016,VALID,0,VALID,24.4409,VALID,150,VALID,0.111719,
2009-10-14, 01:13:04,VALID,1000.57,VALID,0,VALID,84.643,VALID,0.112286,VALID,24.4214,VALID,150,VALID,0.09375,
2009-10-14, 01:14:04,VALID,1000.57,VALID,0,VALID,85.2076,VALID,0,VALID,24.4623,VALID,150,VALID,0,
2009-10-14, 01:15:04,VALID,1000.56,VALID,0,VALID,85.116,VALID,0,VALID,24.4837,VALID,150,VALID,0,
2009-10-14, 01:16:04,VALID,1000.52,VALID,0,VALID,85.0245,VALID,0,VALID,24.4233,VALID,150,VALID,0,
2009-10-14, 01:17:04,VALID,1000.51,VALID,0,VALID,85.0855,VALID,0,VALID,24.4037,VALID,150,VALID,0.0460938,
2009-10-14, 01:18:04,VALID,1000.47,VALID,0,VALID,85.4899,VALID,0,VALID,24.4037,VALID,150,VALID,0.176563,
2009-10-14, 01:19:04,VALID,1000.48,VALID,0,VALID,85.406,VALID,0,VALID,24.3647,VALID,150,VALID,0,
2009-10-14, 01:20:04,VALID,1000.45,VALID,0,VALID,85.4517,VALID,0,VALID,24.3452,VALID,150,VALID,0,
2009-10-14, 01:21:04,VALID,1000.43,VALID,0,VALID,85.5662,VALID,0,VALID,24.3062,VALID,150,VALID,0,
2009-10-14, 01:22:04,VALID,1000.44,VALID,0,VALID,85.6654,VALID,0,VALID,24.2866,VALID,150,VALID,0,
2009-10-14, 01:23:04,VALID,1000.43,VALID,0,VALID,85.7264,VALID,0,VALID,24.2885,VALID,150,VALID,0,
2009-10-14, 01:24:04,VALID,1000.45,VALID,0,VALID,85.7951,VALID,0,VALID,24.2866,VALID,150,VALID,0,
2009-10-14, 01:25:04,VALID,1000.44,VALID,0,VALID,86.1079,VALID,0,VALID,24.2671,VALID,150,VALID,0,
2009-10-14, 01:26:04,VALID,1000.44,VALID,0,VALID,86.2147,VALID,0,VALID,24.2671,VALID,150,VALID,0.0117188,
2009-10-14, 01:27:04,VALID,1000.43,VALID,0,VALID,86.8556,VALID,0,VALID,24.2476,VALID,150,VALID,0.490234,
2009-10-14, 01:28:04,VALID,1000.42,VALID,0,VALID,86.9166,VALID,0,VALID,24.2299,VALID,150,VALID,0.466016,
2009-10-14, 01:29:04,VALID,1000.41,VALID,0,VALID,86.9243,VALID,0,VALID,24.1872,VALID,150,VALID,0.403906,
2009-10-14, 01:30:04,VALID,1000.41,VALID,0,VALID,87.0921,VALID,0,VALID,24.1482,VALID,150,VALID,0.397656,
2009-10-14, 01:31:04,VALID,1000.41,VALID,0,VALID,87.1913,VALID,0,VALID,24.1305,VALID,150,VALID,0.342578,
2009-10-14, 01:32:04,VALID,1000.39,VALID,0,VALID,87.7635,VALID,0,VALID,24.1092,VALID,150,VALID,0.386719,
2009-10-14, 01:33:04,VALID,1000.38,VALID,0,VALID,87.8627,VALID,0,VALID,24.072,VALID,150,VALID,0.224609,
2009-10-14, 01:34:04,VALID,1000.35,VALID,0,VALID,87.9543,VALID,0,VALID,24.0311,VALID,150,VALID,0.132031,
2009-10-14, 01:35:04,VALID,1000.33,VALID,0,VALID,88.145,VALID,0,VALID,24.0116,VALID,150,VALID,0,
2009-10-14, 01:36:04,VALID,1000.3,VALID,0,VALID,88.4426,VALID,0,VALID,24.0134,VALID,150,VALID,0.106641,
2009-10-14, 01:37:04,VALID,1000.28,VALID,0,VALID,88.6257,VALID,0.112286,VALID,23.9921,VALID,150,VALID,0.243359,
2009-10-14, 01:38:04,VALID,1000.28,VALID,0,VALID,88.7172,VALID,0,VALID,23.9726,VALID,150,VALID,0.142188,
2009-10-14, 01:39:04,VALID,1000.23,VALID,0,VALID,88.9003,VALID,0,VALID,23.9531,VALID,150,VALID,0,
2009-10-14, 01:40:04,VALID,1000.24,VALID,0,VALID,88.9614,VALID,0,VALID,23.9531,VALID,150,VALID,0.0667969,
2009-10-14, 01:41:04,VALID,1000.2,VALID,0,VALID,89.0148,VALID,0,VALID,23.9531,VALID,150,VALID,0.135156,
2009-10-14, 01:42:04,VALID,1000.16,VALID,0,VALID,89.0453,VALID,0,VALID,23.914,VALID,150,VALID,0,
2009-10-14, 01:43:04,VALID,1000.13,VALID,0,VALID,89.0987,VALID,0,VALID,23.9354,VALID,150,VALID,0,
2009-10-14, 01:44:04,VALID,1000.11,VALID,0,VALID,89.2589,VALID,0,VALID,23.8945,VALID,150,VALID,0.0171875,
2009-10-14, 01:45:04,VALID,1000.08,VALID,0,VALID,89.236,VALID,0,VALID,23.875,VALID,150,VALID,0.301562,
2009-10-14, 01:46:04,VALID,1000.07,VALID,0,VALID,89.8998,VALID,0,VALID,23.8768,VALID,150,VALID,0.521875,
2009-10-14, 01:47:04,VALID,1000.05,VALID,0,VALID,89.7091,VALID,0,VALID,23.875,VALID,120,VALID,0.93125,
2009-10-14, 01:48:04,VALID,999.991,VALID,0,VALID,89.6709,VALID,0,VALID,23.8945,VALID,119,VALID,0.956641,
2009-10-14, 01:49:04,VALID,1000.02,VALID,0,VALID,89.442,VALID,0.112286,VALID,23.9336,VALID,119,VALID,0.871484,
2009-10-14, 01:50:04,VALID,1000.01,VALID,0,VALID,89.5489,VALID,0,VALID,23.9336,VALID,119,VALID,0.814844,
2009-10-14, 01:51:04,VALID,1000.02,VALID,0,VALID,89.4497,VALID,0.112286,VALID,23.9336,VALID,120,VALID,1.05156,
2009-10-14, 01:52:04,VALID,999.976,VALID,0,VALID,89.4954,VALID,0,VALID,23.8945,VALID,119,VALID,1.09219,
2009-10-14, 01:53:04,VALID,999.98,VALID,0,VALID,89.5183,VALID,0.112286,VALID,23.875,VALID,119,VALID,1.03633,
2009-10-14, 01:54:04,VALID,999.945,VALID,0,VALID,89.6786,VALID,0.112286,VALID,23.8555,VALID,118,VALID,0.935156,
2009-10-14, 01:55:04,VALID,999.922,VALID,0,VALID,89.8083,VALID,0,VALID,23.836,VALID,118,VALID,0.601172,
2009-10-14, 01:56:04,VALID,999.881,VALID,0,VALID,90.0982,VALID,0,VALID,23.8165,VALID,118,VALID,0.625391,
2009-10-14, 01:57:04,VALID,999.854,VALID,0,VALID,90.4491,VALID,0.112286,VALID,23.797,VALID,116,VALID,0.626953,
2009-10-14, 01:58:04,VALID,999.857,VALID,0,VALID,90.7772,VALID,0,VALID,23.8165,VALID,102,VALID,0.7625,
2009-10-14, 01:59:04,VALID,999.841,VALID,0,VALID,90.6399,VALID,0,VALID,23.797,VALID,101,VALID,0.720703,
2009-10-14, 02:00:04,VALID,999.862,VALID,0,VALID,90.3728,VALID,0,VALID,23.7579,VALID,98,VALID,0.76875,
2009-10-14, 02:01:04,VALID,999.843,VALID,0,VALID,90.0982,VALID,0,VALID,23.7579,VALID,98,VALID,0.738672,
2009-10-14, 02:02:04,VALID,999.85,VALID,0,VALID,89.8083,VALID,0,VALID,23.7597,VALID,95,VALID,0.924609,
2009-10-14, 02:03:04,VALID,999.854,VALID,0,VALID,89.5031,VALID,0,VALID,23.7793,VALID,96,VALID,0.6625,
2009-10-14, 02:04:04,VALID,999.834,VALID,0,VALID,89.4191,VALID,0,VALID,23.7988,VALID,98,VALID,0.524219,
2009-10-14, 02:05:04,VALID,999.842,VALID,0,VALID,89.1979,VALID,0,VALID,23.7793,VALID,98,VALID,0.499609,
2009-10-14, 02:06:04,VALID,999.84,VALID,0,VALID,89.1826,VALID,0,VALID,23.7793,VALID,98,VALID,0.3875,
2009-10-14, 02:07:04,VALID,999.836,VALID,0,VALID,89.0453,VALID,0,VALID,23.7402,VALID,98,VALID,0.497266,
2009-10-14, 02:08:04,VALID,999.888,VALID,0,VALID,89.03,VALID,0,VALID,23.7402,VALID,57,VALID,0.741016,
2009-10-14, 02:09:04,VALID,999.88,VALID,0,VALID,89.5412,VALID,0,VALID,23.7793,VALID,34,VALID,1.10391,
2009-10-14, 02:10:04,VALID,999.895,VALID,0,VALID,90.1287,VALID,0,VALID,23.8396,VALID,26,VALID,1.18438,
2009-10-14, 02:11:04,VALID,999.888,VALID,0,VALID,89.8769,VALID,0,VALID,23.7793,VALID,26,VALID,0.951953,
2009-10-14, 02:12:04,VALID,999.878,VALID,0,VALID,90.0143,VALID,0,VALID,23.7207,VALID,22,VALID,1.00664,
2009-10-14, 02:13:04,VALID,999.881,VALID,0,VALID,90.2737,VALID,0,VALID,23.6622,VALID,15,VALID,1.01953,
2009-10-14, 02:14:04,VALID,999.864,VALID,0,VALID,90.6323,VALID,0,VALID,23.6427,VALID,10,VALID,1.15195,
2009-10-14, 02:15:04,VALID,999.849,VALID,0,VALID,90.6857,VALID,0,VALID,23.6036,VALID,7,VALID,0.812891,
2009-10-14, 02:16:04,VALID,999.855,VALID,0,VALID,90.9146,VALID,0,VALID,23.6036,VALID,13,VALID,0.948828,
2009-10-14, 02:17:04,VALID,999.868,VALID,0,VALID,91.09,VALID,0,VALID,23.625,VALID,13,VALID,1.00273,
2009-10-14, 02:18:04,VALID,999.863,VALID,0,VALID,91.1282,VALID,0,VALID,23.6232,VALID,14,VALID,1.0375,
2009-10-14, 02:19:04,VALID,999.852,VALID,0,VALID,91.1587,VALID,0,VALID,23.6232,VALID,14,VALID,0.944141,
2009-10-14, 02:20:04,VALID,999.862,VALID,0,VALID,91.1206,VALID,0,VALID,23.6427,VALID,14,VALID,0.890234,
2009-10-14, 02:21:04,VALID,999.837,VALID,0,VALID,91.1053,VALID,0,VALID,23.6622,VALID,10,VALID,0.713281,
2009-10-14, 02:22:04,VALID,999.861,VALID,0,VALID,90.9909,VALID,0,VALID,23.6622,VALID,10,VALID,0.984375,
2009-10-14, 02:23:04,VALID,999.831,VALID,0,VALID,90.8077,VALID,0,VALID,23.6817,VALID,10,VALID,0.904297,
2009-10-14, 02:24:04,VALID,999.824,VALID,0,VALID,90.617,VALID,0,VALID,23.7012,VALID,10,VALID,0.730078,
2009-10-14, 02:25:04,VALID,999.805,VALID,0,VALID,90.4797,VALID,0,VALID,23.7402,VALID,10,VALID,0.607813,
2009-10-14, 02:26:04,VALID,999.817,VALID,0,VALID,90.3728,VALID,0,VALID,23.7402,VALID,11,VALID,0.533984,
2009-10-14, 02:27:04,VALID,999.809,VALID,0,VALID,90.2737,VALID,0,VALID,23.7597,VALID,25,VALID,0.439453,
2009-10-14, 02:28:04,VALID,999.826,VALID,0,VALID,90.2279,VALID,0,VALID,23.8006,VALID,25,VALID,0.485938,
2009-10-14, 02:29:04,VALID,999.802,VALID,0,VALID,90.1058,VALID,0,VALID,23.7988,VALID,25,VALID,0.566406,
2009-10-14, 02:30:04,VALID,999.793,VALID,0,VALID,89.9074,VALID,0,VALID,23.7793,VALID,25,VALID,0.559766,
2009-10-14, 02:31:04,VALID,999.78,VALID,0,VALID,89.8235,VALID,0,VALID,23.7988,VALID,25,VALID,0.486719,
2009-10-14, 02:32:04,VALID,999.799,VALID,0,VALID,89.8388,VALID,0,VALID,23.8183,VALID,25,VALID,0.352734,
2009-10-14, 02:33:04,VALID,999.815,VALID,0,VALID,89.7701,VALID,0,VALID,23.8591,VALID,25,VALID,0.501953,
2009-10-14, 02:34:04,VALID,999.799,VALID,0,VALID,89.7396,VALID,0,VALID,23.8786,VALID,28,VALID,0.491797,
2009-10-14, 02:35:04,VALID,999.805,VALID,0,VALID,89.7091,VALID,0,VALID,23.8573,VALID,28,VALID,0.524219,
2009-10-14, 02:36:04,VALID,999.771,VALID,0,VALID,89.6557,VALID,0,VALID,23.8963,VALID,90,VALID,0.668359,
2009-10-14, 02:37:04,VALID,999.769,VALID,0,VALID,89.6786,VALID,0,VALID,23.9177,VALID,98,VALID,0.545703,
2009-10-14, 02:38:04,VALID,999.781,VALID,0,VALID,89.6938,VALID,0,VALID,23.9159,VALID,101,VALID,0.653516,
2009-10-14, 02:39:04,VALID,999.792,VALID,0,VALID,89.8006,VALID,0,VALID,23.9567,VALID,101,VALID,0.504687,
2009-10-14, 02:40:04,VALID,999.78,VALID,0,VALID,89.648,VALID,0,VALID,23.9354,VALID,101,VALID,0.462891,
2009-10-14, 02:41:04,VALID,999.798,VALID,0,VALID,89.587,VALID,0,VALID,23.9354,VALID,101,VALID,0.301953,
2009-10-14, 02:42:04,VALID,999.779,VALID,0,VALID,89.4726,VALID,0,VALID,23.9549,VALID,101,VALID,0.277344,
2009-10-14, 02:43:04,VALID,999.749,VALID,0,VALID,89.3352,VALID,0,VALID,23.9549,VALID,101,VALID,0.351953,
2009-10-14, 02:44:04,VALID,999.758,VALID,0,VALID,89.0377,VALID,0,VALID,23.9744,VALID,101,VALID,0.359375,
2009-10-14, 02:45:04,VALID,999.743,VALID,0,VALID,88.7172,VALID,0,VALID,23.9744,VALID,108,VALID,0.473047,
2009-10-14, 02:46:04,VALID,999.753,VALID,0,VALID,88.5112,VALID,0,VALID,23.9939,VALID,109,VALID,0.448438,
2009-10-14, 02:47:04,VALID,999.743,VALID,0,VALID,88.2976,VALID,0,VALID,24.0543,VALID,124,VALID,0.483203,
2009-10-14, 02:48:04,VALID,999.721,VALID,0,VALID,87.9924,VALID,0,VALID,24.0329,VALID,126,VALID,0.636719,
2009-10-14, 02:49:04,VALID,999.732,VALID,0,VALID,87.6643,VALID,0,VALID,24.072,VALID,138,VALID,0.857422,
2009-10-14, 02:50:04,VALID,999.711,VALID,0,VALID,87.5651,VALID,0,VALID,24.0525,VALID,143,VALID,0.619141,
2009-10-14, 02:51:04,VALID,999.723,VALID,0,VALID,87.3134,VALID,0,VALID,24.0525,VALID,157,VALID,0.667969,
2009-10-14, 02:52:04,VALID,999.758,VALID,0,VALID,87.2523,VALID,0,VALID,24.0329,VALID,153,VALID,0.570313,
2009-10-14, 02:53:04,VALID,999.74,VALID,0,VALID,87.054,VALID,0,VALID,24.0134,VALID,152,VALID,0.617969,
2009-10-14, 02:54:04,VALID,999.75,VALID,0,VALID,86.9624,VALID,0,VALID,24.0134,VALID,150,VALID,0.419922,
2009-10-14, 02:55:04,VALID,999.768,VALID,0,VALID,86.8174,VALID,0,VALID,24.0134,VALID,150,VALID,0.39375,
2009-10-14, 02:56:04,VALID,999.779,VALID,0,VALID,86.7411,VALID,0,VALID,24.0134,VALID,150,VALID,0.322266,
2009-10-14, 02:57:04,VALID,999.829,VALID,0,VALID,86.7259,VALID,0,VALID,24.0134,VALID,158,VALID,0.572656,
2009-10-14, 02:58:04,VALID,999.848,VALID,0,VALID,86.6267,VALID,0,VALID,24.0134,VALID,161,VALID,0.436328,
2009-10-14, 02:59:04,VALID,999.841,VALID,0,VALID,86.5657,VALID,0,VALID,24.0311,VALID,161,VALID,0.375391,
2009-10-14, 03:00:04,VALID,999.851,VALID,0,VALID,86.436,VALID,0,VALID,24.0506,VALID,161,VALID,0.386719,
2009-10-14, 03:01:04,VALID,999.893,VALID,0,VALID,86.3749,VALID,0,VALID,24.072,VALID,161,VALID,0.292188,
2009-10-14, 03:02:04,VALID,999.899,VALID,0,VALID,86.3978,VALID,0,VALID,24.0915,VALID,161,VALID,0.156641,
2009-10-14, 03:03:04,VALID,999.888,VALID,0,VALID,86.4131,VALID,0,VALID,24.072,VALID,161,VALID,0.163672,
2009-10-14, 03:04:04,VALID,999.925,VALID,0,VALID,86.4207,VALID,0,VALID,24.0525,VALID,161,VALID,0.310547,
2009-10-14, 03:05:04,VALID,999.927,VALID,0,VALID,86.4436,VALID,0,VALID,24.0506,VALID,161,VALID,0.314844,
2009-10-14, 03:06:04,VALID,999.919,VALID,0,VALID,86.4589,VALID,0,VALID,24.0311,VALID,161,VALID,0.384766,
2009-10-14, 03:07:04,VALID,999.945,VALID,0,VALID,86.4665,VALID,0,VALID,24.0311,VALID,156,VALID,0.539453,
2009-10-14, 03:08:04,VALID,999.943,VALID,0,VALID,86.3597,VALID,0,VALID,24.0311,VALID,133,VALID,0.321875,
2009-10-14, 03:09:04,VALID,999.951,VALID,0,VALID,86.5275,VALID,0,VALID,24.0116,VALID,133,VALID,0.282422,
2009-10-14, 03:10:04,VALID,999.955,VALID,0,VALID,86.4741,VALID,0,VALID,23.9726,VALID,125,VALID,0.0535156,
2009-10-14, 03:11:04,VALID,999.948,VALID,0,VALID,86.5199,VALID,0,VALID,23.9939,VALID,125,VALID,0,
2009-10-14, 03:12:04,VALID,999.934,VALID,0,VALID,86.703,VALID,0,VALID,23.9744,VALID,125,VALID,0,
2009-10-14, 03:13:04,VALID,999.958,VALID,0,VALID,86.8709,VALID,0,VALID,23.9549,VALID,125,VALID,0,
2009-10-14, 03:14:04,VALID,999.979,VALID,0,VALID,86.909,VALID,0,VALID,23.914,VALID,125,VALID,0,
2009-10-14, 03:15:04,VALID,1000.02,VALID,0,VALID,86.9624,VALID,0,VALID,23.8963,VALID,125,VALID,0,
2009-10-14, 03:16:04,VALID,1000.04,VALID,0,VALID,87.1608,VALID,0,VALID,23.8555,VALID,125,VALID,0,
2009-10-14, 03:17:04,VALID,1000.05,VALID,0,VALID,87.3057,VALID,0,VALID,23.8555,VALID,125,VALID,0,
2009-10-14, 03:18:04,VALID,1000.05,VALID,0,VALID,87.3057,VALID,0,VALID,23.8963,VALID,125,VALID,0.440625,
2009-10-14, 03:19:04,VALID,1000.03,VALID,0,VALID,87.1989,VALID,0,VALID,23.8963,VALID,129,VALID,0.919531,
2009-10-14, 03:20:04,VALID,1000.03,VALID,0,VALID,87.0997,VALID,0,VALID,23.9336,VALID,129,VALID,0.649609,
2009-10-14, 03:21:04,VALID,1000.01,VALID,0,VALID,86.9548,VALID,0.112286,VALID,23.9531,VALID,129,VALID,0.619141,
2009-10-14, 03:22:04,VALID,1000.02,VALID,0,VALID,86.703,VALID,0,VALID,23.9921,VALID,129,VALID,0.739453,
2009-10-14, 03:23:04,VALID,1000.02,VALID,0,VALID,86.4436,VALID,0.112286,VALID,24.0116,VALID,138,VALID,1.05234,
2009-10-14, 03:24:04,VALID,1000.03,VALID,0,VALID,86.4665,VALID,0,VALID,23.9921,VALID,138,VALID,1.08398,
2009-10-14, 03:25:04,VALID,1000.04,VALID,0,VALID,86.497,VALID,0.112286,VALID,23.9921,VALID,139,VALID,0.974219,
2009-10-14, 03:26:04,VALID,1000.05,VALID,0,VALID,86.5123,VALID,0.112286,VALID,23.9726,VALID,138,VALID,1.01445,
2009-10-14, 03:27:04,VALID,999.994,VALID,0,VALID,86.5962,VALID,0,VALID,23.9531,VALID,137,VALID,0.977344,
2009-10-14, 03:28:04,VALID,1000.05,VALID,0,VALID,86.642,VALID,0,VALID,23.9531,VALID,135,VALID,0.953125,
2009-10-14, 03:29:04,VALID,1000.07,VALID,0,VALID,86.703,VALID,0,VALID,23.9354,VALID,135,VALID,0.892578,
2009-10-14, 03:30:04,VALID,1000.08,VALID,0,VALID,86.848,VALID,0,VALID,23.9372,VALID,135,VALID,0.937891,
2009-10-14, 03:31:04,VALID,1000.08,VALID,0,VALID,86.8937,VALID,0,VALID,23.9372,VALID,137,VALID,0.957812,
2009-10-14, 03:32:04,VALID,1000.08,VALID,0,VALID,86.9014,VALID,0,VALID,23.8963,VALID,141,VALID,0.796875,
2009-10-14, 03:33:04,VALID,1000.09,VALID,0,VALID,86.9319,VALID,0,VALID,23.8963,VALID,141,VALID,0.737891,
2009-10-14, 03:34:04,VALID,1000.09,VALID,0,VALID,86.9014,VALID,0,VALID,23.9177,VALID,141,VALID,0.64375,
2009-10-14, 03:35:04,VALID,1000.14,VALID,0,VALID,87.0234,VALID,0,VALID,23.8768,VALID,141,VALID,0.632422,
2009-10-14, 03:36:04,VALID,1000.13,VALID,0,VALID,87.0463,VALID,0,VALID,23.8982,VALID,141,VALID,0.775,
2009-10-14, 03:37:04,VALID,1000.13,VALID,0,VALID,87.1303,VALID,0,VALID,23.8768,VALID,141,VALID,0.806641,
2009-10-14, 03:38:04,VALID,1000.12,VALID,0,VALID,87.1074,VALID,0,VALID,23.8963,VALID,141,VALID,0.705078,
2009-10-14, 03:39:04,VALID,1000.15,VALID,0,VALID,87.0616,VALID,0,VALID,23.8963,VALID,141,VALID,0.497656,
2009-10-14, 03:40:04,VALID,1000.13,VALID,0,VALID,87.115,VALID,0,VALID,23.8768,VALID,140,VALID,0.798437,
2009-10-14, 03:41:04,VALID,1000.14,VALID,0,VALID,87.0845,VALID,0,VALID,23.8768,VALID,135,VALID,0.842188,
2009-10-14, 03:42:04,VALID,1000.16,VALID,0,VALID,87.1532,VALID,0,VALID,23.8963,VALID,133,VALID,0.755859,
2009-10-14, 03:43:04,VALID,1000.18,VALID,0,VALID,87.1684,VALID,0,VALID,23.8963,VALID,133,VALID,0.940625,
2009-10-14, 03:44:04,VALID,1000.18,VALID,0,VALID,87.1455,VALID,0,VALID,23.8768,VALID,133,VALID,1.10156,
2009-10-14, 03:45:04,VALID,1000.15,VALID,0,VALID,87.1455,VALID,0,VALID,23.8573,VALID,132,VALID,1.00273,
2009-10-14, 03:46:04,VALID,1000.15,VALID,0,VALID,87.2066,VALID,0,VALID,23.8183,VALID,132,VALID,0.667188,